Location: Saint-Hippolyte
(43.6394°N, 4.7559°E)
Time: 21:09:45
(UTC+00:00)

Daily predictions for brighter satellites

Satellite Brightness Start Highest point End
(mag) Time Altitude Azimuth Time Altitude Azimuth Time Altitude Azimuth
Cosmos 2369 Rocket 3.8 17:02:37 10° WSW 17:07:45 34° NW 17:12:57 10° N
Cosmos 1850 Rocket 4.0 17:03:09 10° NNW 17:08:26 68° ENE 17:13:44 10° SSE
Cosmos 1939 Rocket 3.8 17:06:09 10° SE 17:09:33 27° ENE 17:12:56 10° N
Cosmos 2297 Rocket 3.5 17:06:05 10° N 17:10:13 20° NE 17:14:19 10° E
NOAA 12 4.2 17:07:18 10° SSE 17:12:35 88° ENE 17:17:56 10° NNW
COSMO-SKYMED 1 3.3 17:11:01 10° NNE 17:14:56 32° E 17:18:49 10° SSE
Cosmos 1452 Rocket 3.8 17:09:50 10° SSW 17:15:06 77° WNW 17:20:24 10° NNE
Okean O Rocket 1.9 17:11:55 10° S 17:16:17 76° WSW 17:20:40 10° NNW
Aureole 3 Rocket 4.3 17:14:48 10° SE 17:17:27 18° E 17:20:35 10° NE
Cosmos 1689 Rocket 3.2 17:15:16 10° NE 17:17:40 23° E 17:20:02 10° SSE
H-2A R/B 3.5 17:16:04 10° E 17:19:35 18° ENE 17:23:08 10° NNE
H-2A R/B 3.6 17:18:30 10° N 17:22:23 37° WNW 17:26:11 10° SW
Cosmos 1328 3.7 17:18:43 10° N 17:22:41 78° E 17:26:37 10° SSE
IRS-1C Rocket 4.3 17:19:26 10° SE 17:24:29 48° ENE 17:29:33 10° N
Cosmos 2098 Rocket 4.0 17:21:34 10° NNW 17:24:30 35° W 17:27:10 10° SSW
Cosmos 1356 Rocket 4.4 17:21:22 10° SSW 17:25:31 54° WNW 17:29:45 10° N
CORIOLIS 4.4 17:20:25 10° S 17:25:45 78° WSW 17:31:09 10° NNW
ADEOS Rocket 4.0 17:20:30 10° N 17:26:36 55° WNW 17:33:22 10° SW
Cosmos 1340 4.1 17:24:23 10° NNE 17:27:01 18° ENE 17:29:38 10° ESE
CZ-4 R/B 2.4 17:24:08 10° ESE 17:27:17 24° ENE 17:30:26 10° NNE
Cosmos 1825 Rocket 3.6 17:24:36 10° N 17:29:02 60° E 17:33:23 10° SSE
ERS-2 2.5 17:26:05 10° N 17:29:42 67° WNW 17:33:18 10° SSW
YAOGAN 1 3.6 17:27:35 10° ESE 17:31:06 25° ENE 17:34:38 10° NNE
USA 281 3.9 17:25:22 10° S 17:31:49 60° WSW 17:38:19 10° NNW
Lacrosse 5 3.6 17:29:40 10° WNW 17:33:45 24° NNW 17:37:50 10° NE
Cosmos 2219 4.0 17:30:53 10° N 17:35:58 31° NE 17:41:02 10° ESE
Meteor 2-21 Rocket 4.4 17:30:37 10° N 17:36:47 64° E 17:42:51 10° SSE
CZ-4B R/B 2.3 17:37:53 10° N 17:41:03 49° WNW 17:44:07 10° SSW
Cosmos 1400 Rocket 3.6 17:37:38 10° SSE 17:41:19 32° E 17:44:59 10° NNE
SAR-Lupe-4 3.5 17:37:58 10° NNE 17:41:34 88° E 17:45:10 10° SSW
Cosmos 44 3.3 17:38:43 10° SSW 17:42:59 49° ESE 17:47:32 10° NE
Cosmos 1726 Rocket 3.5 17:40:02 10° S 17:44:17 62° E 17:48:36 10° NNE
Okean-O 2.9 17:40:07 10° SE 17:44:18 43° ENE 17:48:30 10° N
Cosmos 1758 Rocket 4.0 17:41:54 10° NNW 17:46:17 67° W 17:50:36 10° S
Aureole 3 2.9 17:53:52 10° S 17:57:10 47° E 18:00:07 10° NNE
Cosmos 1606 Rocket 3.8 17:54:21 10° SSW 17:58:40 72° W 18:03:05 10° N
Cosmos 1331 Rocket 4.1 17:53:33 10° SSW 17:58:43 81° WNW 18:03:54 10° NNE
FALCON 9 DEB 3.3 17:55:46 10° SW 17:58:53 47° SE 17:59:55 33° E
Nadezhda 2 Rocket 4.5 17:56:30 10° N 18:02:56 80° E 18:09:22 10° S
Cosmos 2228 3.6 17:58:50 10° SSW 18:03:00 59° W 18:07:14 10° N
SKYMED 2 3.7 17:58:46 10° N 18:03:07 78° WNW 18:07:27 10° SSW
GENESIS II 4.4 17:59:29 10° SW 18:03:30 77° NW 18:07:02 13° NNE
ATLAS 5 CENTAUR R/B 4.3 18:02:49 10° NW 18:04:33 12° NNW 18:06:23 10° N
SL-4 R/B 3.4 18:03:25 10° WNW 18:06:23 24° N 18:08:01 18° NNE
FALCON 9 DEB 2.9 18:03:19 10° SW 18:06:28 60° SE 18:07:15 43° E
CZ-2C R/B 3.3 18:01:17 10° SSE 18:06:59 60° ENE 18:12:36 10° N
Cosmos 1244 Rocket 4.4 18:01:07 10° N 18:07:21 78° E 18:13:36 10° SSE
Cosmos 292 Rocket 3.8 18:03:06 10° SSW 18:07:54 86° WNW 18:12:44 10° NNE
ARGOS 3.7 18:09:09 22° ESE 18:11:56 35° ENE 18:16:50 10° N
Cosmos 1346 Rocket 3.9 18:10:13 10° N 18:12:50 27° NE 18:12:50 27° NE
Cosmos 2227 Rocket 2.5 18:08:58 10° NNW 18:14:24 45° ENE 18:17:08 26° ESE
FALCON 9 DEB 2.9 18:11:18 10° SW 18:14:31 67° SE 18:15:00 56° E
Meteor 2-10 Rocket 3.9 18:09:35 10° SSE 18:14:36 40° E 18:19:27 10° NNE
SeaSat 1 2.9 18:14:54 30° E 18:16:34 40° NE 18:21:10 10° NNW
Cosmos 1892 2.9 18:14:46 10° N 18:18:33 48° ENE 18:19:18 42° ESE
CZ-2D R/B 3.7 18:14:58 10° S 18:18:45 63° W 18:22:33 10° NNW
USA 215 4.0 18:17:28 24° ENE 18:20:36 37° NNE 18:26:27 10° NW
Cosmos 1656 3.7 18:16:09 10° S 18:21:33 58° ESE 18:26:21 14° NE
CSL-04 Rocket 3.7 18:19:18 10° SSE 18:24:45 61° ENE 18:30:12 10° N
Cosmos 2263 Rocket 4.2 18:22:43 10° NNE 18:24:14 12° NNE 18:24:14 12° NNE
Cosmos 2058 Rocket 3.2 18:20:49 10° SSW 18:25:17 76° W 18:29:48 10° N
ATLAS 2AS CENTAUR R/B 4.2 18:19:45 10° NNW 18:25:26 22° NNE 18:27:53 19° NE
Cosmos 968 Rocket 3.7 18:20:23 10° N 18:25:27 48° ENE 18:26:57 37° ESE
Cosmos 1302 Rocket 4.0 18:21:57 10° SSW 18:27:13 88° WNW 18:32:32 10° NNE
FALCON 9 DEB 2.9 18:26:01 10° WSW 18:29:11 82° WNW 18:29:11 82° WNW
Cosmos 1300 4.3 18:26:15 10° SW 18:29:46 35° WNW 18:33:18 10° N
Cosmos 1486 Rocket 4.0 18:26:40 10° NNW 18:31:57 58° ENE 18:33:47 38° SE
USA 307 4.2 18:29:00 10° NW 18:32:37 26° NNE 18:32:53 26° NNE
Cosmos 1697 Rocket 3.1 18:28:15 10° S 18:32:53 37° ESE 18:32:53 37° ESE
Helios 1A Rocket 4.2 18:32:37 10° S 18:36:33 43° W 18:40:29 10° NNW
USA 308 4.2 18:33:45 10° NW 18:37:25 27° NNE 18:37:27 27° NNE
GEOS 3 Rocket 3.6 18:36:45 29° SE 18:39:36 88° SW 18:45:02 10° NW
S3M 3.8 18:36:17 10° S 18:42:22 74° E 18:48:30 10° NNE
DMSP B5D1-3 4.5 18:38:44 10° NNE 18:43:54 88° WNW 18:49:03 10° SSW
CRYOSAT 2 4.2 18:40:39 10° N 18:45:32 81° E 18:50:24 10° S
Milstar 3 4.2 18:44:54 10° SW 18:50:04 23° S 18:51:54 21° SSE
Cosmos 2297 Rocket 2.3 18:49:14 10° NNW 18:54:54 75° WSW 18:57:46 30° SSE
H-2A R/B 2.3 18:53:01 10° S 18:58:23 72° WSW 19:03:51 10° NNW
Cosmos 2058 3.5 18:54:54 10° N 18:57:58 49° NNW 18:57:58 49° NNW
MOS 1 Rocket 3.6 18:54:54 10° N 18:59:29 67° WNW 19:04:19 10° SSW
CZ-4 R/B 3.4 18:58:53 10° SSW 19:02:13 26° W 19:05:33 10° NW
Cosmos 1340 4.5 18:59:20 10° NNW 19:02:42 31° W 19:05:57 11° SSW
YAOGAN 1 4.3 19:03:11 10° SSW 19:07:03 32° W 19:10:57 10° NNW
Cosmos 1992 Rocket 4.1 19:04:49 10° SSW 19:09:12 64° SSW 19:09:12 64° SSW
Ariane Rocket 4.3 19:18:51 31° N 19:18:51 31° N 19:21:30 10° N
Lacrosse 5 3.9 19:14:51 10° NW 19:18:09 18° N 19:18:09 18° N
Cosmos 2219 4.2 19:14:50 10° NW 19:20:16 44° WSW 19:23:22 24° SSW
BREEZE-M R/B 4.3 19:17:55 10° WNW 19:22:46 60° NNE 19:23:15 59° NE
Cosmos 2082 4.0 19:25:34 10° NNW 19:30:17 61° NW 19:30:17 61° NW
Atlas Centaur 2 4.1 19:24:53 10° SW 19:31:14 29° S 19:31:14 29° S
CZ-4C R/B 4.2 19:32:46 10° NNW 19:37:16 25° NNE 19:37:16 25° NNE
SeaSat 1 4.1 19:54:42 29° W 19:54:42 29° W 19:58:28 10° NW
Cosmos 2227 Rocket 3.8 19:53:28 10° NW 19:58:12 28° WSW 19:59:01 27° WSW
USA 215 3.8 20:04:50 54° NW 20:04:50 54° NW 20:09:42 10° NW
Cosmos 2263 Rocket 4.3 20:04:24 10° NNW 20:05:56 19° NNW 20:05:56 19° NNW
ATLAS 2AS CENTAUR R/B 3.9 20:10:42 10° NNW 20:15:19 38° NNW 20:15:19 38° NNW
